Omaha, NE

11:35 AM CST on February 24, 2017 (GMT -0600)
Eppley Airfield

Weather History for KOMA - January, 2013

Change the Weather History Date:

Thursday, January 10, 2013

  Actual Average Record
Temperature  
Mean Temperature 36 °F 23 °F  
Max Temperature 39 °F 33 °F 67 °F (1928)
Min Temperature 33 °F 13 °F -22 °F (1982)
Degree Days  
Heating Degree Days 29 42  
Month to date heating degree days 420  
Since 1 July heating degree days 2899  
Cooling Degree Days 0 0  
Month to date cooling degree days 0  
Year to date cooling degree days 0  
Moisture  
Dew Point 32 °F    
Average Humidity 81    
Maximum Humidity 100    
Minimum Humidity 51    
Precipitation  
Precipitation 0.04 in 0.02 in 1.02 in (1975)
Month to date precipitation 0.22  
Year to date precipitation 0.22  
Snow  
Snow 0.00 in 0.20 in - ()
Month to date snowfall 1.9  
Since 1 July snowfall 10.9  
Snow Depth -    
Sea Level Pressure  
Sea Level Pressure 29.94 in    
Wind  
Wind Speed 9 mph (SSE)    
Max Wind Speed 16 mph    
Max Gust Speed -    
Visibility 6 miles    
Events Fog , Rain    
T = Trace of Precipitation, MM = Missing Value Source: NWS Daily Summary

Daily Weather History Graph

Daily Weather History Graph

Search for Another Location

Airport or City:

Trip Planner

Search our weather history database for the weather conditions in past years. The results will help you decide how hot, cold, wet, or windy it might be!

Date:

Astronomy

Jan. 10, 2013 Rise Set
Actual Time 7:48 AM CST 5:14 PM CST
Civil Twilight 7:17 AM CST 5:44 PM CST
Nautical Twilight 6:43 AM CST 6:19 PM CST
Astronomical Twilight 6:10 AM CST 6:52 PM CST
Moon 6:29 AM CST (1/10) 4:23 PM CST (1/10)
Length of Visible Light 10h 26m
Length of Day
9h 25m
Waning Crescent, 2% of the Moon is Illuminated
Jan 10
Waning Crescent
Jan 11
New
Jan 18
First Quarter
Jan 26
Full
Feb 3
Last Quarter

Hourly Weather History & Observations

Time (CST) Temp. Windchill Dew Point Humidity Pressure Visibility Wind Dir Wind Speed Gust Speed Precip Events Conditions
12:52 AM 34.0 °F 28.0 °F 26.1 °F 73% 30.35 in 10.0 mi SSE 6.9 mph - N/A   Scattered Clouds
1:52 AM 34.0 °F 26.6 °F 27.0 °F 75% 30.34 in 10.0 mi SSE 9.2 mph - N/A   Scattered Clouds
2:52 AM 35.1 °F 30.1 °F 27.0 °F 72% 30.31 in 10.0 mi South 5.8 mph - N/A   Mostly Cloudy
3:52 AM 33.1 °F 26.1 °F 25.0 °F 72% 30.30 in 10.0 mi SSE 8.1 mph - N/A   Mostly Cloudy
4:52 AM 35.1 °F 26.4 °F 26.1 °F 70% 30.26 in 10.0 mi SSE 12.7 mph - N/A   Mostly Cloudy
5:52 AM 36.0 °F 27.5 °F 25.0 °F 64% 30.23 in 10.0 mi SSE 12.7 mph - N/A   Mostly Cloudy
6:52 AM 33.1 °F 26.9 °F 23.0 °F 66% 30.20 in 10.0 mi SE 6.9 mph - N/A   Scattered Clouds
7:52 AM 37.4 °F 29.3 °F 24.8 °F 60% 30.16 in 10.0 mi SE 12.7 mph - N/A   Mostly Cloudy
8:52 AM 37.0 °F 29.8 °F 25.0 °F 62% 30.15 in 10.0 mi SSE 10.4 mph - N/A   Overcast
9:42 AM 37.4 °F 30.8 °F 24.8 °F 60% 30.09 in 10.0 mi SSE 9.2 mph - N/A   Overcast
9:52 AM 39.0 °F 31.8 °F 26.1 °F 60% 30.11 in 10.0 mi SE 11.5 mph - N/A   Overcast
10:52 AM 39.0 °F 31.0 °F 27.0 °F 62% 30.06 in 10.0 mi SE 13.8 mph - N/A   Overcast
11:52 AM 39.2 °F 30.5 °F 28.4 °F 65% 29.96 in 10.0 mi SE 16.1 mph - N/A   Overcast
12:52 PM 39.2 °F 33.6 °F 30.2 °F 70% 29.92 in 10.0 mi SSE 8.1 mph - N/A   Overcast
1:52 PM 39.2 °F 32.5 °F 32.0 °F 75% 29.90 in 7.0 mi SSE 10.4 mph - N/A   Overcast
2:52 PM 39.0 °F 31.8 °F 35.1 °F 86% 29.90 in 7.0 mi SSE 11.5 mph - 0.01 in   Overcast
3:07 PM 39.2 °F 32.5 °F 35.6 °F 87% 29.87 in 10.0 mi SSE 10.4 mph - N/A   Overcast
3:52 PM 37.9 °F 30.5 °F 35.1 °F 89% 29.88 in 7.0 mi SE 11.5 mph - 0.00 in Rain Light Rain
4:52 PM 37.9 °F 30.5 °F 35.1 °F 89% 29.86 in 3.0 mi SSE 11.5 mph - 0.01 in Rain Light Rain
5:52 PM 37.9 °F 31.5 °F 36.0 °F 93% 29.83 in 10.0 mi SSE 9.2 mph - 0.02 in   Overcast
6:41 PM 37.4 °F 29.8 °F 35.6 °F 93% 29.79 in 8.0 mi SSE 11.5 mph - N/A   Overcast
6:52 PM 37.0 °F 30.4 °F 36.0 °F 96% 29.81 in 4.0 mi SSE 9.2 mph - N/A   Overcast
7:27 PM 37.4 °F 31.4 °F 35.6 °F 93% 29.76 in 2.0 mi SSE 8.1 mph - N/A   Overcast
7:40 PM 37.4 °F 30.8 °F 35.6 °F 93% 29.76 in 1.5 mi SSE 9.2 mph - N/A   Overcast
7:52 PM 37.0 °F 31.0 °F 36.0 °F 96% 29.78 in 0.8 mi SSE 8.1 mph - N/A   Mist
8:33 PM 37.4 °F 32.1 °F 35.6 °F 93% 29.77 in 1.5 mi South 6.9 mph - N/A   Overcast
8:52 PM 37.9 °F 31.5 °F 37.0 °F 97% 29.79 in 1.0 mi South 9.2 mph - N/A   Overcast
9:02 PM 37.4 °F 31.4 °F 35.6 °F 93% 29.76 in 0.8 mi South 8.1 mph - N/A   Mist
9:33 PM 35.6 °F 29.9 °F 35.6 °F 100% 29.75 in 0.2 mi SSE 6.9 mph - N/A Fog Fog
9:52 PM 36.0 °F 31.1 °F 35.1 °F 97% 29.77 in 0.2 mi SSE 5.8 mph - N/A Fog Fog
10:52 PM 36.0 °F 31.1 °F 35.1 °F 97% 29.73 in 0.5 mi SE 5.8 mph - 0.00 in Fog Light Drizzle
11:29 PM 37.4 °F 31.4 °F 35.6 °F 93% 29.70 in 1.2 mi SSE 8.1 mph - N/A   Overcast
11:50 PM 37.4 °F 30.8 °F 35.6 °F 93% 29.70 in 0.8 mi SSE 9.2 mph - 0.00 in   Overcast
11:52 PM 37.0 °F 30.4 °F 36.0 °F 96% 29.72 in 0.8 mi South 9.2 mph - 0.00 in   Overcast